Home   Weather   Tallinn   Past weeks

Flag for Estonia Past Weather in Tallinn, Estonia — Yesterday and Last 2 Weeks

Now
57 °F

Partly sunny.


Feels Like: 52 °F
Forecast: 52 / 58 °F
Wind: 31 mph from West

Location: Tallinn

Current Time: Sep 30, 2016 at 4:42:09 PM

Latest Report: Sep 30, 2016 at 4:20 PM


Visibility: N/A

Pressure: 29.42 "Hg

Humidity: 67%

Dew Point: 46 °F

Location of TallinnLocation

Past Weather in Tallinn — Graph

°F

Tallinn Temperature Yesterday

Maximum temperature yesterday: 61 °F (at 2:20 PM)
Minimum temperature yesterday: 52 °F (at 12:20 AM)
Average temperature yesterday: 56 °F

High & Low Weather Summary for the Past Weeks

 TemperatureHumidityPressure
High64 °F (Sep 15, 4:20 PM)100% (Sep 20, 2:50 AM)30.33 "Hg (Sep 20, 2:50 AM)
Low39 °F (Sep 30, 1:20 PM)55% (Sep 16, 5:50 PM)29.21 "Hg (Sep 30, 7:20 AM)
Average53 °F83%30.05 "Hg
* Reported Sep 15 3:20 PM — Sep 30 3:20 PM, Tallinn, Weather by CustomWeather, © 2016

Note: Actual official high and low records may vary slightly from our data, if they occured in-between our weather recording intervals... More about our weather records

Advertising

Tallinn Weather History for the Previous 24 Hours

Scroll right to see more
 ConditionsComfort  
Time TempWeatherWind HumidityBarometerVisibility
3:20 PM
Fri, Sep 30
57 °FBroken clouds.29 mph67%29.39 "HgN/A
2:50 PM57 °FPartly sunny.26 mph72%29.39 "HgN/A
2:20 PM59 °FPartly sunny.25 mph68%29.36 "HgN/A
1:50 PM59 °FPartly sunny.29 mph68%29.36 "HgN/A
1:20 PM39 °FPartly sunny.29 mph100%29.33 "HgN/A
12:50 PM57 °FBroken clouds.30 mph72%29.30 "HgN/A
12:20 PM59 °FScattered clouds.28 mph68%29.30 "HgN/A
11:50 AM57 °FScattered showers. Broken clouds.24 mph77%29.30 "HgN/A
11:20 AM55 °FPartly sunny.20 mph82%29.27 "HgN/A
10:50 AM54 °FPartly sunny.17 mph88%29.27 "HgN/A
10:20 AM54 °FBroken clouds.23 mph88%29.27 "HgN/A
9:50 AM54 °FRain showers. Broken clouds.24 mph88%29.24 "Hg4 mi
9:20 AM55 °FScattered clouds.17 mph82%29.24 "HgN/A
8:50 AM55 °FSprinkles. Broken clouds.18 mph82%29.21 "HgN/A
8:20 AM54 °FSprinkles. Broken clouds.16 mph88%29.21 "HgN/A
7:50 AM55 °FScattered clouds.16 mph82%29.21 "HgN/A
7:20 AM55 °FPassing clouds.15 mph82%29.21 "HgN/A
6:50 AM55 °FPassing clouds.17 mph82%29.24 "HgN/A
6:20 AM55 °FPassing clouds.15 mph82%29.24 "HgN/A
5:50 AM55 °FPassing clouds.14 mph82%29.24 "HgN/A
5:20 AM55 °FPassing clouds.13 mph82%29.24 "HgN/A
4:50 AM55 °FClear.15 mph88%29.27 "Hg10 mi
4:20 AM55 °FPassing clouds.15 mph88%29.27 "HgN/A
3:50 AM57 °FPassing clouds.15 mph82%29.27 "HgN/A
3:20 AM57 °FPassing clouds.14 mph88%29.27 "HgN/A
2:50 AM57 °FPassing clouds.16 mph88%29.27 "HgN/A
2:20 AM59 °FPartly cloudy.16 mph88%29.27 "HgN/A
1:50 AM59 °FPassing clouds.17 mph88%29.27 "HgN/A
1:20 AM59 °FPassing clouds.16 mph88%29.27 "HgN/A
12:50 AM59 °FMostly cloudy.17 mph88%29.30 "HgN/A
12:20 AM59 °FPartly cloudy.17 mph88%29.30 "HgN/A
11:50 PM
Thu, Sep 29
59 °FSprinkles. Passing clouds.17 mph88%29.27 "HgN/A
11:20 PM59 °FPassing clouds.16 mph100%29.30 "HgN/A
10:50 PM61 °FRain showers. Partly cloudy.17 mph94%29.27 "Hg2 mi
10:20 PM61 °FRain showers. Partly cloudy.20 mph94%29.30 "Hg2 mi
9:50 PM59 °FLight rain. Low clouds.18 mph100%29.30 "Hg3 mi
9:20 PM59 °FLight rain. Low clouds.17 mph94%29.33 "Hg4 mi
8:50 PM59 °FLight rain. Low clouds.16 mph94%29.36 "Hg5 mi
8:20 PM57 °FLight rain. Low clouds.15 mph100%29.39 "Hg3 mi
7:50 PM57 °FLight rain. Low clouds.16 mph94%29.42 "Hg5 mi
7:20 PM57 °FDrizzle. Low clouds.18 mph94%29.42 "Hg5 mi
6:50 PM55 °FDrizzle. Low clouds.17 mph94%29.45 "Hg4 mi
6:20 PM55 °FDrizzle. Low clouds.15 mph94%29.45 "HgN/A
5:50 PM55 °FMostly cloudy.16 mph88%29.47 "HgN/A
5:20 PM55 °FOvercast.16 mph88%29.50 "HgN/A
4:50 PM57 °FSprinkles. Broken clouds.17 mph82%29.50 "Hg5 mi
4:20 PM59 °FPartly sunny.15 mph77%29.53 "HgN/A
Weather by CustomWeather, © 2016

See weather overviewHow to use our weather pages